Date String (YYYY-MM-DD hh:mm:ss) UTC,Instrument flags,Ambient pressure (hPa),Sample flow (lpm),Bypass flow (lpm),Sample temperature (°C),Ambient temperature (°C),ASC tube jacket temperature (°C),LED temperature (°C),Box temperature (°C),Sample RH (%),Span deviation,Mass concentration (μg/m³),Mass concentration (μg/m³),Mass concentration (μg/m³)
DateTimeUTC,F1_M11,P_M11,Q1_M11,Q2_M11,T1_M11,T2_M11,T3_M11,T4_M11,T5_M11,U1_M11,ZSPAN_M11,X0_M11,X2_M11,X1_M11
2022-02-25 04:00:00,,0826.8,5.00,0.00,22.5,21.8,00.0,31.5,24.2,06.1,0000.5,0014.18,0010.29,0009.62
2022-02-25 04:01:00,,0826.9,4.99,0.00,22.4,21.7,00.0,31.5,24.2,06.1,0000.5,0014.42,0010.30,0009.63
2022-02-25 04:02:00,,0826.9,5.00,0.00,22.4,21.6,00.0,31.4,24.1,06.1,0000.2,0014.74,0010.34,0009.67
2022-02-25 04:03:00,,0826.9,5.01,0.00,22.4,21.6,00.0,31.4,24.1,06.2,0000.3,0014.73,0010.40,0009.72
2022-02-25 04:04:00,,0826.9,5.00,0.00,22.4,21.7,00.0,31.4,24.1,06.2,-000.0,0014.80,0010.42,0009.72
2022-02-25 04:05:00,,0826.9,4.99,0.00,22.4,22.3,00.0,31.4,24.2,06.1,-000.2,0015.16,0010.45,0009.75
2022-02-25 04:06:00,,0827.0,5.00,0.00,22.6,23.0,00.0,31.5,24.4,06.1,0000.0,0015.45,0010.47,0009.78
2022-02-25 04:07:00,,0826.9,5.01,0.00,22.7,23.1,00.0,31.5,24.6,06.1,0000.2,0015.52,0010.48,0009.80
2022-02-25 04:08:00,,0827.0,5.00,0.00,22.7,22.9,00.0,31.5,24.6,06.1,0000.2,0015.62,0010.52,0009.82
2022-02-25 04:09:00,,0826.9,5.00,0.00,22.7,22.6,00.0,31.5,24.5,06.1,0000.5,0015.79,0010.57,0009.84
2022-02-25 04:10:00,,0826.9,5.00,0.00,22.6,22.4,00.0,31.5,24.5,06.1,0000.9,0015.83,0010.61,0009.86
2022-02-25 04:11:00,,0827.0,5.00,0.00,22.6,22.3,00.0,31.5,24.4,06.1,0001.3,0015.94,0010.61,0009.87
2022-02-25 04:12:00,,0827.0,5.00,0.00,22.6,22.1,00.0,31.5,24.3,06.1,0001.5,0015.78,0010.61,0009.88
2022-02-25 04:13:00,,0827.1,5.00,0.00,22.5,22.0,00.0,31.5,24.3,06.1,0001.7,0015.41,0010.59,0009.88
2022-02-25 04:14:00,,0827.0,4.99,0.00,22.5,21.9,00.0,31.5,24.2,06.1,0001.6,0015.48,0010.55,0009.84
2022-02-25 04:15:00,,0827.0,5.00,0.00,22.5,21.8,00.0,31.5,24.2,06.1,0001.6,0015.43,0010.51,0009.81
2022-02-25 04:16:00,,0827.0,5.00,0.00,22.4,21.7,00.0,31.5,24.2,06.1,0001.4,0015.04,0010.43,0009.78
2022-02-25 04:17:00,,0827.1,5.00,0.00,22.4,21.6,00.0,31.4,24.1,06.1,0001.2,0014.85,0010.38,0009.73
2022-02-25 04:18:00,,0827.1,5.00,0.00,22.4,21.5,00.0,31.4,24.1,06.1,0000.9,0015.02,0010.34,0009.67
2022-02-25 04:19:00,,0827.1,5.00,0.00,22.4,21.6,00.0,31.4,24.1,06.1,0000.4,0014.99,0010.27,0009.60
2022-02-25 04:20:00,,0827.2,5.00,0.00,22.4,22.3,00.0,31.4,24.2,06.1,-000.2,0014.88,0010.20,0009.53
2022-02-25 04:21:00,,0827.1,5.01,0.00,22.6,23.0,00.0,31.5,24.4,06.1,-000.5,0014.91,0010.11,0009.44
2022-02-25 04:22:00,,0827.1,4.99,0.00,22.7,23.1,00.0,31.5,24.6,06.1,-000.6,0014.78,0010.00,0009.34
2022-02-25 04:23:00,,0827.1,4.99,0.00,22.7,22.8,00.0,31.5,24.6,06.1,-000.9,0014.71,0009.94,0009.26
2022-02-25 04:24:00,,0827.1,5.00,0.00,22.7,22.6,00.0,31.5,24.5,06.1,-000.7,0014.87,0009.93,0009.19
2022-02-25 04:25:00,,0827.1,5.01,0.00,22.6,22.4,00.0,31.5,24.5,06.1,-000.7,0014.81,0009.87,0009.14
2022-02-25 04:26:00,,0827.2,5.00,0.00,22.6,22.2,00.0,31.5,24.4,06.1,-000.7,0015.17,0009.84,0009.10
2022-02-25 04:27:00,,0827.1,4.99,0.00,22.6,22.1,00.0,31.5,24.3,06.1,-000.3,0015.00,0009.79,0009.06
2022-02-25 04:28:00,,0827.3,5.01,0.00,22.6,22.0,00.0,31.5,24.3,06.1,-000.4,0014.91,0009.78,0009.07
2022-02-25 04:29:00,,0827.4,5.01,0.00,22.5,21.9,00.0,31.5,24.3,06.1,0000.1,0014.75,0009.80,0009.10
2022-02-25 04:30:00,,0827.3,5.01,0.00,22.5,21.8,00.0,31.5,24.2,06.1,0000.6,0014.82,0009.81,0009.14
2022-02-25 04:31:00,,0827.2,4.99,0.00,22.5,21.7,00.0,31.5,24.2,06.1,0001.0,0015.41,0009.83,0009.18
2022-02-25 04:32:00,,0827.2,5.00,0.00,22.4,21.6,00.0,31.5,24.1,06.1,0001.2,0015.35,0009.88,0009.22
2022-02-25 04:33:00,,0827.2,4.99,0.00,22.4,21.6,00.0,31.4,24.1,06.1,0001.3,0015.36,0009.98,0009.30
2022-02-25 04:34:00,,0827.3,5.00,0.00,22.4,22.1,00.0,31.5,24.2,06.1,0001.6,0015.39,0010.05,0009.36
2022-02-25 04:35:00,,0827.3,4.99,0.00,22.5,22.8,00.0,31.5,24.4,06.1,0001.7,0015.37,0010.07,0009.41
2022-02-25 04:36:00,,0827.3,5.00,0.00,22.7,23.1,00.0,31.5,24.6,06.1,0001.3,0015.70,0010.07,0009.43
2022-02-25 04:37:00,,0827.3,5.00,0.00,22.7,23.0,00.0,31.5,24.6,06.1,0001.5,0016.09,0010.15,0009.49
2022-02-25 04:38:00,,0827.4,5.00,0.00,22.7,22.7,00.0,31.5,24.5,06.1,0001.6,0016.44,0010.24,0009.57
2022-02-25 04:39:00,,0827.4,5.00,0.00,22.7,22.5,00.0,31.5,24.4,06.1,0001.4,0016.57,0010.31,0009.62
2022-02-25 04:40:00,,0827.4,5.00,0.00,22.6,22.3,00.0,31.5,24.4,06.1,0001.4,0017.25,0010.36,0009.67
2022-02-25 04:41:00,,0827.4,5.00,0.00,22.6,22.1,00.0,31.5,24.3,06.1,0000.9,0017.64,0010.40,0009.70
2022-02-25 04:42:00,,0827.4,5.00,0.00,22.5,22.0,00.0,31.5,24.3,06.1,0000.9,0017.04,0010.45,0009.74
2022-02-25 04:43:00,,0827.3,5.00,0.00,22.5,21.8,00.0,31.5,24.2,06.2,0001.0,0017.17,0010.54,0009.79
2022-02-25 04:44:00,,0827.3,4.99,0.00,22.5,21.7,00.0,31.5,24.1,06.2,0001.1,0017.54,0010.59,0009.82
2022-02-25 04:45:00,,0827.2,5.00,0.00,22.4,21.6,00.0,31.5,24.1,06.2,0000.7,0017.76,0010.64,0009.87
2022-02-25 04:46:00,,0827.2,5.00,0.00,22.4,21.6,00.0,31.5,24.1,06.2,0000.7,0017.83,0010.73,0009.95
2022-02-25 04:47:00,,0827.2,5.00,0.00,22.4,21.8,00.0,31.5,24.1,06.2,0000.9,0017.44,0010.84,0010.07
2022-02-25 04:48:00,,0827.3,5.01,0.00,22.5,22.5,00.0,31.5,24.3,06.2,0001.0,0016.88,0010.90,0010.16
2022-02-25 04:49:00,,0827.4,5.00,0.00,22.6,23.1,00.0,31.5,24.5,06.2,0000.3,0016.58,0010.93,0010.20
2022-02-25 04:50:00,,0827.4,4.99,0.00,22.7,23.0,00.0,31.5,24.6,06.1,0000.4,0016.69,0011.01,0010.22
2022-02-25 04:51:00,,0827.4,5.02,0.00,22.7,22.8,00.0,31.5,24.5,06.1,0000.1,0016.05,0011.05,0010.26
2022-02-25 04:52:00,,0827.4,4.99,0.00,22.7,22.6,00.0,31.5,24.4,06.1,0000.1,0015.74,0011.11,0010.31
2022-02-25 04:53:00,,0827.4,5.00,0.00,22.6,22.3,00.0,31.5,24.3,06.1,0000.1,0015.73,0011.14,0010.35
2022-02-25 04:54:00,,0827.4,5.00,0.00,22.6,22.1,00.0,31.5,24.2,06.2,0000.1,0015.80,0011.18,0010.40
2022-02-25 04:55:00,,0827.4,5.00,0.00,22.5,21.9,00.0,31.5,24.2,06.2,0000.0,0015.88,0011.23,0010.47
2022-02-25 04:56:00,,0827.3,5.00,0.00,22.4,21.8,00.0,31.5,24.1,06.2,-000.1,0015.65,0011.24,0010.50
2022-02-25 04:57:00,,0827.4,4.99,0.00,22.4,21.7,00.0,31.5,24.1,06.2,0000.0,0015.74,0011.22,0010.50
2022-02-25 04:58:00,,0827.4,5.01,0.00,22.4,21.6,00.0,31.5,24.0,06.3,-000.0,0015.83,0011.23,0010.49
2022-02-25 04:59:00,,0827.4,5.01,0.00,22.3,21.5,00.0,31.4,24.0,06.3,-000.1,0015.86,0011.24,0010.50
